Location: Los Ranchitos
(37.9930°N, 122.5425°W)
Time: 02:58:44
(UTC+00:00)

USA 234 - Pass Details

Date: 21 September 2020
Orbit: 1102 x 1106 km, 123.0° (Epoch: 16 October)

Event Time Altitude Azimuth Distance (km) Brightness Sun altitude
Exits shadow 03:52:12 12° 52° (NE) 2,817 5.1 -20.8°
Maximum altitude 03:58:17 63° 132° (SE) 1,217 3.2 -21.9°
Drops below altitude 10° 04:04:45 10° 213° (SSW) 2,954 5.6 -23.1°
Sets 04:07:15 0° 216° (SW) 3,910 6.3 -23.6°
